�������l�o���
Date,Time,MP-1(��Sv/h),MP-2(��Sv/h),MP-3(��Sv/h),MP-4(��Sv/h),MP-5(��Sv/h),MP-6(��Sv/h),MP-7(��Sv/h),MP-8(��Sv/h),����,����(m/s),���J
2024/02/15,00:00,0.514,0.778,0.489,0.974,0.700,0.313,0.559,0.525,�k�k��,1.9,��
2024/02/15,00:10,0.513,0.779,0.488,0.976,0.700,0.314,0.559,0.523,���k��,1.7,��
2024/02/15,00:20,0.513,0.778,0.490,0.976,0.702,0.313,0.558,0.524,�k��,2.0,��
2024/02/15,00:30,0.513,0.777,0.490,0.975,0.701,0.312,0.560,0.522,�k,1.2,��
2024/02/15,00:40,0.512,0.778,0.488,0.977,0.701,0.315,0.559,0.523,���쓌,0.6,��
2024/02/15,00:50,0.513,0.779,0.490,0.976,0.701,0.314,0.557,0.524,���쐼,0.9,��
2024/02/15,01:00,0.513,0.777,0.489,0.975,0.702,0.315,0.559,0.525,��,1.9,��
2024/02/15,01:10,0.513,0.776,0.490,0.974,0.702,0.313,0.559,0.524,�쐼,1.7,��
2024/02/15,01:20,0.513,0.777,0.489,0.978,0.701,0.313,0.559,0.522,���쐼,1.4,��
2024/02/15,01:30,0.514,0.776,0.490,0.975,0.701,0.314,0.559,0.522,��,1.5,��
2024/02/15,01:40,0.515,0.776,0.488,0.975,0.701,0.313,0.559,0.523,��쐼,0.6,��
2024/02/15,01:50,0.513,0.778,0.488,0.977,0.701,0.313,0.558,0.523,���쐼,2.3,��
2024/02/15,02:00,0.514,0.775,0.489,0.974,0.700,0.314,0.560,0.522,�쐼,4.2,��
2024/02/15,02:10,0.514,0.777,0.489,0.975,0.702,0.314,0.560,0.524,�쐼,4.4,��
2024/02/15,02:20,0.514,0.777,0.489,0.977,0.701,0.313,0.560,0.523,��쐼,3.5,��
2024/02/15,02:30,0.515,0.776,0.489,0.976,0.702,0.314,0.560,0.523,��쐼,3.1,��
2024/02/15,02:40,0.513,0.776,0.489,0.976,0.701,0.314,0.559,0.522,��,3.7,��
2024/02/15,02:50,0.515,0.778,0.489,0.979,0.703,0.314,0.559,0.522,��,4.6,��
2024/02/15,03:00,0.514,0.777,0.489,0.978,0.699,0.314,0.559,0.523,��,5.9,��
2024/02/15,03:10,0.514,0.779,0.489,0.977,0.702,0.315,0.560,0.522,��쐼,5.3,��
2024/02/15,03:20,0.514,0.777,0.486,0.978,0.702,0.313,0.559,0.522,��,5.8,��
2024/02/15,03:30,0.514,0.778,0.488,0.976,0.702,0.312,0.559,0.521,��,6.2,��
2024/02/15,03:40,0.513,0.778,0.489,0.975,0.701,0.315,0.558,0.522,��,5.8,��
2024/02/15,03:50,0.512,0.778,0.489,0.977,0.701,0.312,0.560,0.522,��,7.8,��
2024/02/15,04:00,0.514,0.777,0.489,0.975,0.701,0.315,0.557,0.522,��,7.0,��
2024/02/15,04:10,0.515,0.778,0.490,0.976,0.701,0.314,0.559,0.523,��,8.0,��
2024/02/15,04:20,0.513,0.779,0.488,0.973,0.701,0.314,0.558,0.522,��,8.2,��
2024/02/15,04:30,0.514,0.778,0.491,0.975,0.700,0.314,0.560,0.521,��,7.8,��
2024/02/15,04:40,0.515,0.778,0.489,0.977,0.700,0.315,0.559,0.524,��,8.5,��
2024/02/15,04:50,0.512,0.777,0.491,0.975,0.700,0.313,0.560,0.522,��,7.2,��
2024/02/15,05:00,0.514,0.778,0.490,0.976,0.700,0.313,0.560,0.522,��,6.5,��
2024/02/15,05:10,0.515,0.777,0.490,0.977,0.702,0.314,0.559,0.521,��,6.9,��
2024/02/15,05:20,0.514,0.777,0.489,0.979,0.700,0.314,0.559,0.522,��,7.0,��
2024/02/15,05:30,0.514,0.777,0.489,0.977,0.701,0.313,0.558,0.522,��,9.3,��
2024/02/15,05:40,0.514,0.778,0.489,0.977,0.701,0.314,0.558,0.522,��쐼,9.6,��
2024/02/15,05:50,0.514,0.777,0.490,0.975,0.701,0.314,0.561,0.520,��,9.8,��
2024/02/15,06:00,0.513,0.777,0.490,0.976,0.701,0.314,0.559,0.524,��,9.8,��
2024/02/15,06:10,0.513,0.777,0.490,0.974,0.702,0.314,0.560,0.522,��쐼,9.6,��
2024/02/15,06:20,0.514,0.778,0.489,0.976,0.699,0.314,0.562,0.522,��쐼,9.1,��
2024/02/15,06:30,0.515,0.777,0.490,0.978,0.703,0.314,0.560,0.523,��,9.8,��
2024/02/15,06:40,0.513,0.779,0.489,0.975,0.701,0.314,0.561,0.523,��,11.3,��
2024/02/15,06:50,0.516,0.780,0.490,0.978,0.702,0.313,0.559,0.524,��,11.3,��
2024/02/15,07:00,0.515,0.777,0.489,0.976,0.701,0.314,0.559,0.522,��,7.2,��
2024/02/15,07:10,0.515,0.778,0.490,0.978,0.704,0.314,0.561,0.524,��,8.7,��
2024/02/15,07:20,0.514,0.778,0.489,0.977,0.702,0.314,0.560,0.523,��,7.7,��
2024/02/15,07:30,0.514,0.780,0.490,0.979,0.701,0.314,0.560,0.522,��,7.5,��
2024/02/15,07:40,0.514,0.778,0.489,0.976,0.702,0.315,0.561,0.522,��,7.0,��
2024/02/15,07:50,0.515,0.779,0.490,0.976,0.702,0.314,0.561,0.522,��,7.4,��
2024/02/15,08:00,0.515,0.779,0.491,0.978,0.701,0.315,0.560,0.523,��,8.8,��
2024/02/15,08:10,0.515,0.783,0.490,0.977,0.703,0.314,0.561,0.523,��,9.3,��
2024/02/15,08:20,0.515,0.779,0.490,0.977,0.703,0.314,0.561,0.523,��,8.2,��
2024/02/15,08:30,0.514,0.777,0.489,0.978,0.702,0.315,0.561,0.523,��,8.8,��
2024/02/15,08:40,0.514,0.777,0.489,0.976,0.701,0.314,0.560,0.526,��,8.1,��
2024/02/15,08:50,0.515,0.776,0.489,0.978,0.702,0.315,0.559,0.524,��쓌,9.3,��
2024/02/15,09:00,0.516,0.777,0.491,0.981,0.702,0.315,0.559,0.523,��,10.0,��
2024/02/15,09:10,0.515,0.777,0.489,0.976,0.702,0.314,0.560,0.523,��쓌,10.7,��
2024/02/15,09:20,0.515,0.775,0.489,0.978,0.700,0.314,0.557,0.524,��쓌,9.6,��
2024/02/15,09:30,0.514,0.776,0.490,0.977,0.701,0.315,0.559,0.524,��쓌,11.4,��
2024/02/15,09:40,0.513,0.774,0.489,0.979,0.702,0.314,0.559,0.524,��쓌,10.5,��
2024/02/15,09:50,0.515,0.776,0.488,0.977,0.704,0.315,0.559,0.523,��쓌,10.5,��
2024/02/15,10:00,0.512,0.777,0.488,0.978,0.701,0.316,0.560,0.525,��,9.2,��
2024/02/15,10:10,0.515,0.777,0.489,0.976,0.702,0.315,0.558,0.525,��,6.3,��
2024/02/15,10:20,0.513,0.777,0.490,0.976,0.697,0.316,0.559,0.524,��,5.9,��
2024/02/15,10:30,0.513,0.776,0.490,0.978,0.697,0.315,0.559,0.523,��,6.3,��
2024/02/15,10:40,0.513,0.777,0.489,0.979,0.700,0.314,0.558,0.524,��,8.4,��
2024/02/15,10:50,0.514,0.779,0.489,0.979,0.703,0.314,0.559,0.524,��,7.6,��
2024/02/15,11:00,0.513,0.774,0.488,0.980,0.701,0.314,0.559,0.523,��,7.8,��
2024/02/15,11:10,0.515,0.776,0.487,0.978,0.700,0.315,0.560,0.522,��,5.7,��
2024/02/15,11:20,0.514,0.778,0.488,0.977,0.701,0.313,0.560,0.523,��,5.4,��
2024/02/15,11:30,0.514,0.778,0.490,0.980,0.702,0.314,0.560,0.523,��쓌,5.9,��
2024/02/15,11:40,0.513,0.778,0.488,0.979,0.703,0.313,0.560,0.522,��쓌,6.1,��
2024/02/15,11:50,0.514,0.777,0.488,0.980,0.700,0.315,0.560,0.523,��,8.0,��
2024/02/15,12:00,0.514,0.777,0.486,0.981,0.703,0.313,0.560,0.523,��쓌,10.2,��
2024/02/15,12:10,0.514,0.778,0.489,0.979,0.703,0.313,0.560,0.523,��쓌,9.5,��
2024/02/15,12:20,0.514,0.777,0.488,0.979,0.703,0.313,0.560,0.524,��쓌,9.6,��
2024/02/15,12:30,0.515,0.779,0.487,0.980,0.701,0.315,0.560,0.523,��쓌,10.3,��
2024/02/15,12:40,0.514,0.779,0.490,0.980,0.702,0.314,0.561,0.523,��쓌,8.2,��
2024/02/15,12:50,0.514,0.779,0.488,0.979,0.703,0.315,0.561,0.522,��쓌,10.0,��
2024/02/15,13:00,0.516,0.779,0.488,0.979,0.702,0.315,0.562,0.522,��쓌,9.9,��
2024/02/15,13:10,0.514,0.777,0.488,0.980,0.704,0.314,0.562,0.522,��쓌,10.2,��
2024/02/15,13:20,0.514,0.776,0.487,0.980,0.705,0.316,0.560,0.524,��쓌,9.0,��
2024/02/15,13:30,0.514,0.780,0.489,0.979,0.705,0.315,0.562,0.521,��,5.9,��
2024/02/15,13:40,0.516,0.778,0.490,0.980,0.705,0.316,0.562,0.523,��쐼,6.4,��
2024/02/15,13:50,0.516,0.778,0.489,0.981,0.702,0.315,0.561,0.522,��쐼,7.7,��
2024/02/15,14:00,0.515,0.778,0.489,0.980,0.703,0.314,0.560,0.522,�쐼,7.7,��
2024/02/15,14:10,0.516,0.778,0.490,0.981,0.704,0.315,0.560,0.523,�쐼,7.3,��
2024/02/15,14:20,0.515,0.778,0.489,0.981,0.705,0.315,0.563,0.523,��쐼,5.4,��
2024/02/15,14:30,0.516,0.779,0.489,0.980,0.703,0.315,0.561,0.523,��쓌,10.0,��
2024/02/15,14:40,0.516,0.780,0.490,0.979,0.705,0.315,0.561,0.523,��,6.4,��
2024/02/15,14:50,0.516,0.778,0.490,0.981,0.703,0.316,0.563,0.523,��쓌,8.6,��
2024/02/15,15:00,0.515,0.780,0.489,0.981,0.705,0.316,0.561,0.521,��,9.4,��
2024/02/15,15:10,0.514,0.779,0.488,0.982,0.704,0.316,0.562,0.523,��,8.5,��
2024/02/15,15:20,0.514,0.779,0.489,0.981,0.704,0.316,0.563,0.523,��,9.2,��
2024/02/15,15:30,0.515,0.778,0.490,0.981,0.705,0.314,0.562,0.521,��,10.3,��
2024/02/15,15:40,0.513,0.779,0.489,0.982,0.703,0.315,0.563,0.524,��,9.2,��
2024/02/15,15:50,0.515,0.779,0.489,0.981,0.704,0.316,0.563,0.523,��,7.5,��
2024/02/15,16:00,0.514,0.777,0.489,0.980,0.703,0.316,0.561,0.522,��,9.3,��
2024/02/15,16:10,0.516,0.780,0.488,0.980,0.705,0.316,0.563,0.524,��,7.5,��
2024/02/15,16:20,0.516,0.778,0.490,0.980,0.705,0.316,0.562,0.523,��,7.6,��
2024/02/15,16:30,0.515,0.778,0.487,0.981,0.703,0.316,0.560,0.523,��,8.4,��
2024/02/15,16:40,0.515,0.780,0.489,0.982,0.701,0.316,0.562,0.523,��,9.7,��
2024/02/15,16:50,0.516,0.779,0.490,0.981,0.704,0.316,0.563,0.523,��쐼,7.6,��
2024/02/15,17:00,0.518,0.781,0.491,0.981,0.703,0.317,0.562,0.524,��,10.8,��
2024/02/15,17:10,0.515,0.780,0.489,0.978,0.704,0.316,0.562,0.525,��,10.8,��
2024/02/15,17:20,0.515,0.781,0.489,0.982,0.704,0.316,0.562,0.526,��,10.0,��
2024/02/15,17:30,0.514,0.782,0.490,0.980,0.704,0.315,0.562,0.526,��쐼,7.9,��
2024/02/15,17:40,0.516,0.783,0.491,0.983,0.704,0.316,0.563,0.525,��,6.7,��
2024/02/15,17:50,0.516,0.782,0.492,0.981,0.704,0.316,0.563,0.526,��,7.4,��
2024/02/15,18:00,0.516,0.784,0.493,0.981,0.706,0.317,0.562,0.526,��,9.2,��
2024/02/15,18:10,0.517,0.782,0.492,0.981,0.707,0.318,0.563,0.526,��,9.2,��
2024/02/15,18:20,0.516,0.783,0.492,0.980,0.707,0.317,0.564,0.526,��,10.2,��
2024/02/15,18:30,0.518,0.782,0.492,0.982,0.707,0.318,0.561,0.525,��쐼,9.1,��
2024/02/15,18:40,0.518,0.784,0.491,0.981,0.706,0.319,0.564,0.525,��쐼,9.5,��
2024/02/15,18:50,0.518,0.782,0.492,0.982,0.708,0.317,0.565,0.526,��,7.6,��
2024/02/15,19:00,0.518,0.783,0.491,0.980,0.708,0.318,0.564,0.525,��,8.2,��
2024/02/15,19:10,0.517,0.783,0.491,0.983,0.708,0.318,0.563,0.525,��,10.5,��
2024/02/15,19:20,0.517,0.783,0.490,0.980,0.706,0.317,0.564,0.525,��쐼,11.4,��
2024/02/15,19:30,0.516,0.783,0.492,0.980,0.705,0.317,0.563,0.525,��쐼,9.9,��
2024/02/15,19:40,0.519,0.782,0.491,0.982,0.707,0.318,0.565,0.525,��,10.5,��
2024/02/15,19:50,0.517,0.782,0.490,0.982,0.705,0.316,0.564,0.525,��,9.7,��
2024/02/15,20:00,0.517,0.781,0.492,0.982,0.705,0.316,0.563,0.525,��,10.9,��
2024/02/15,20:10,0.519,0.782,0.491,0.980,0.706,0.317,0.564,0.525,��,10.5,��
2024/02/15,20:20,0.519,0.783,0.492,0.980,0.706,0.316,0.563,0.525,��,8.1,��
2024/02/15,20:30,0.515,0.782,0.490,0.982,0.706,0.317,0.564,0.526,��,7.2,��
2024/02/15,20:40,0.518,0.782,0.491,0.982,0.704,0.316,0.565,0.524,��쓌,8.0,��
2024/02/15,20:50,0.517,0.783,0.491,0.979,0.707,0.317,0.564,0.524,��쓌,9.5,��
2024/02/15,21:00,0.517,0.782,0.491,0.980,0.706,0.318,0.563,0.525,��쓌,10.0,��
2024/02/15,21:10,0.517,0.781,0.491,0.980,0.705,0.318,0.563,0.525,��쓌,10.3,��
2024/02/15,21:20,0.518,0.782,0.494,0.979,0.705,0.317,0.564,0.526,��,8.8,��
2024/02/15,21:30,0.518,0.779,0.489,0.980,0.706,0.317,0.563,0.525,��,10.9,��
2024/02/15,21:40,0.516,0.782,0.492,0.980,0.705,0.317,0.563,0.526,��,9.3,��
2024/02/15,21:50,0.516,0.783,0.492,0.981,0.707,0.317,0.564,0.526,��,10.8,��
2024/02/15,22:00,0.519,0.782,0.490,0.982,0.706,0.317,0.564,0.526,��쓌,12.8,��
2024/02/15,22:10,0.517,0.782,0.493,0.980,0.707,0.316,0.563,0.525,��쓌,13.1,��
2024/02/15,22:20,0.517,0.781,0.491,0.979,0.706,0.318,0.564,0.527,��쓌,14.1,��
2024/02/15,22:30,0.518,0.782,0.492,0.981,0.705,0.318,0.564,0.525,��쓌,11.0,��
2024/02/15,22:40,0.518,0.781,0.492,0.983,0.705,0.317,0.564,0.526,��쓌,11.1,��
2024/02/15,22:50,0.518,0.782,0.491,0.981,0.704,0.317,0.564,0.526,��,6.9,��
2024/02/15,23:00,0.518,0.783,0.491,0.978,0.707,0.317,0.564,0.526,��쐼,8.5,��
2024/02/15,23:10,0.518,0.783,0.491,0.981,0.705,0.318,0.563,0.526,�쐼,7.6,��
2024/02/15,23:20,0.518,0.782,0.491,0.980,0.707,0.317,0.563,0.527,�쐼,7.3,�L
2024/02/15,23:30,0.517,0.783,0.492,0.981,0.706,0.316,0.565,0.527,�쐼,8.1,�L
2024/02/15,23:40,0.519,0.781,0.492,0.982,0.704,0.317,0.562,0.526,���쐼,9.0,�L
2024/02/15,23:50,0.519,0.783,0.492,0.980,0.704,0.319,0.563,0.526,��,8.3,�L
